Weather History for KCRW - May, 2013

Change the Weather History Date:

Wednesday, May 15, 2013

  Actual Average Record
Temperature  
Mean Temperature 74 °F 63 °F  
Max Temperature 88 °F 75 °F 92 °F (1916)
Min Temperature 60 °F 52 °F 35 °F (1920)
Degree Days  
Heating Degree Days 0 4  
Month to date heating degree days 64 73  
Since 1 July heating degree days 4480 4421  
Cooling Degree Days 9 2  
Month to date cooling degree days 19 23  
Year to date cooling degree days 58 55  
Growing Degree Days 22 (Base 50)    
Moisture  
Dew Point 52 °F    
Average Humidity 46    
Maximum Humidity 65    
Minimum Humidity 26    
Precipitation  
Precipitation 0.00 in 0.17 in 1.34 in (1996)
Month to date precipitation 2.58 2.24  
Year to date precipitation 13.45 15.58  
Snow  
Snow 0.00 in - - ()
Month to date snowfall 0.0  
Since 1 September snowfall 25.3  
Snow Depth 0.00 in    
Sea Level Pressure  
Sea Level Pressure 29.90 in    
Wind  
Wind Speed 11 mph (SW)    
Max Wind Speed 24 mph    
Max Gust Speed 32 mph    
Visibility 10 miles    
Events      
T = Trace of Precipitation, MM = Missing Value Source: NWS Daily Summary

Daily Weather History Graph

Daily Weather History Graph

Search for Another Location

Airport or City:

Trip Planner

Search our weather history database for the weather conditions in past years. The results will help you decide how hot, cold, wet, or windy it might be!

Date:

Astronomy

May. 15, 2013 Rise Set
Actual Time 6:14 AM EDT 8:31 PM EDT
Civil Twilight 5:45 AM EDT 9:00 PM EDT
Nautical Twilight 5:08 AM EDT 9:37 PM EDT
Astronomical Twilight 4:28 AM EDT 10:17 PM EDT
Moon 10:48 AM EDT (5/15) 12:17 AM EDT (5/15)
Length of Visible Light 15h 15m
Length of Day
14h 16m
Waxing Crescent, 26% of the Moon is Illuminated
May 15
Waxing Crescent
May 18
First Quarter
May 25
Full
May 31
Last Quarter
Jun 8
New

Hourly Weather History & Observations

Time (EDT) Temp. Heat Index Dew Point Humidity Pressure Visibility Wind Dir Wind Speed Gust Speed Precip Events Conditions
12:54 AM 61.0 °F - 48.9 °F 64% 29.92 in 10.0 mi South 9.2 mph - N/A   Clear
1:54 AM 63.0 °F - 50.0 °F 63% 29.90 in 10.0 mi SW 10.4 mph - N/A   Clear
2:54 AM 66.0 °F - 51.1 °F 59% 29.91 in 10.0 mi SW 8.1 mph 19.6 mph N/A   Clear
3:54 AM 69.1 °F - 52.0 °F 54% 29.90 in 10.0 mi SW 12.7 mph - N/A   Clear
4:54 AM 69.1 °F - 53.1 °F 57% 29.91 in 10.0 mi SW 12.7 mph - 0.00 in   Mostly Cloudy
5:54 AM 69.1 °F - 53.1 °F 57% 29.91 in 10.0 mi SW 11.5 mph - N/A   Mostly Cloudy
6:54 AM 69.1 °F - 54.0 °F 58% 29.92 in 10.0 mi SW 11.5 mph 24.2 mph N/A   Scattered Clouds
7:54 AM 71.1 °F - 54.0 °F 55% 29.94 in 10.0 mi SW 18.4 mph 21.9 mph N/A   Scattered Clouds
8:54 AM 72.0 °F - 55.0 °F 55% 29.96 in 10.0 mi WSW 11.5 mph 23.0 mph N/A   Scattered Clouds
9:54 AM 75.9 °F - 55.0 °F 48% 29.96 in 10.0 mi SW 16.1 mph 25.3 mph N/A   Partly Cloudy
10:54 AM 78.1 °F - 55.0 °F 45% 29.95 in 10.0 mi WSW 13.8 mph 27.6 mph N/A   Clear
11:54 AM 81.0 °F 80.7 °F 55.0 °F 41% 29.95 in 10.0 mi WSW 10.4 mph 24.2 mph N/A   Clear
12:54 PM 82.9 °F 82.1 °F 55.9 °F 39% 29.93 in 10.0 mi West 8.1 mph 21.9 mph N/A   Clear
1:54 PM 84.9 °F 83.6 °F 55.0 °F 36% 29.91 in 10.0 mi SW 18.4 mph 24.2 mph N/A   Clear
2:54 PM 86.0 °F 84.5 °F 55.0 °F 35% 29.88 in 10.0 mi WSW 12.7 mph 25.3 mph N/A   Clear
3:54 PM 88.0 °F 86.1 °F 55.0 °F 32% 29.86 in 10.0 mi WSW 11.5 mph 23.0 mph N/A   Clear
4:54 PM 88.0 °F - 50.0 °F 27% 29.85 in 10.0 mi WSW 16.1 mph 26.5 mph N/A   Clear
5:54 PM 87.1 °F - 48.0 °F 26% 29.83 in 10.0 mi SW 19.6 mph 28.8 mph N/A   Clear
6:54 PM 86.0 °F - 48.0 °F 27% 29.83 in 10.0 mi WSW 12.7 mph 19.6 mph N/A   Clear
7:54 PM 82.9 °F - 48.9 °F 31% 29.83 in 10.0 mi WSW 11.5 mph 19.6 mph N/A   Clear
8:54 PM 79.0 °F - 50.0 °F 36% 29.85 in 10.0 mi SW 5.8 mph - N/A   Clear
9:54 PM 78.1 °F - 51.1 °F 39% 29.88 in 10.0 mi West 3.5 mph - N/A   Clear
10:54 PM 73.9 °F - 51.1 °F 45% 29.90 in 10.0 mi SW 3.5 mph - N/A   Clear
11:54 PM 73.0 °F - 50.0 °F 44% 29.90 in 10.0 mi SSW 5.8 mph - N/A   Clear